Lid_Strength_Index
12 12 12 12 12 12 12 12 11 11 11 11 11 10 10 10 10 10 10 11 12 11
12 12 12 12 12 12 12 11 11 11 11 11 11 10 11 11 11 10 10 11 11 12
12 13 12 12 13 12 12 12 11 11 11 11 11 11 11 11 11 10 11 10 11 11
13 13 13 13 13 13 12 12 12 11 11 11 11 11 12 12 11 11 10 10 11 11
13 13 14 14 13 13 13 12 12 12 12 12 12 11 12 12 11 10 10 10 11 11
13 14 14 14 14 13 13 13 13 13 13 12 12 12 12 11 10 10 11 10 11 11
13 13 14 14 14 14 14 14 13 13 13 12 12 12 12 10 11 11 10 10 10 11
13 14 14 14 14 14 14 14 13 13 14 13 13 12 12 11 11 11 11 10 10 11
13 13 14 14 14 14 14 14 14 14 14 14 13 10 8 8 11 10 11 11 10 11
13 13 14 14 14 14 15 15 15 15 15 15 14 9 8 7 11 11 11 11 11 12
13 13 14 14 14 14 15 15 15 16 16 15 14 9 8 7 11 11 11 11 12 13
13 13 14 14 14 14 15 15 15 15 16 16 14 9 8 9 12 12 12 11 12 12
12 13 13 13 14 14 15 14 14 14 15 13 15 10 8 9 12 13 12 11 11 9
12 12 13 14 14 14 14 14 15 14 14 15 14 14 9 8 12 12 12 12 12 12